Flag for Iran Weather past 2 weeks in Behbahan, Iran

Now
66 °F

Clear.


Feels Like: 66 °F
Forecast: 64 / 84 °F
Wind: No wind

Location: Gach Saran Du Gunbadan

Current Time: Mar 30, 2015 at 12:17:02 AM

Latest Report: Mar 29, 2015 at 11:27 PM


Visibility: 10 mi

Pressure: 30.01 "Hg

Humidity: 46%

Dew point: 45 °F

Location of BehbahanLocation

Historic Weather in Behbahan — Graph

°F

Behbahan temperature yesterday

Maximum temperature yesterday: 81 °F (at 4:30 PM)
Minimum temperature yesterday: 52 °F (at 6:24 AM)
Average temperature yesterday: 67 °F

Past Weeks' High & Low Weather Summary

 TemperatureHumidityPressure
High81 °F (Mar 29, 4:30 PM)100% (Mar 18, 2:30 PM)30.18 "Hg (Mar 18, 2:30 PM)
Low45 °F (Mar 24, 3:30 AM)12% (Mar 25, 5:30 PM)29.95 "Hg (Mar 22, 6:30 PM)
Average63 °F66%30.06 "Hg
* Reported Mar 16 1:27 PM — Mar 29 10:28 PM, Behbahan, Weather by CustomWeather, © 2015

Note: Actual official high and low records may vary slightly from our data, if they occured in-between our weather recording intervals... More about our weather records

Advertising

Behbahan weather history for previous 24 hours

 ConditionsComfort  
Time TempWeatherWind HumidityBarometerVisibility
10:28 PM
Sun, Mar 29
64 °FClear.No wind64%30.01 "Hg10 mi
9:25 PM70 °FClear.5 mph40%29.98 "Hg10 mi
8:25 PM70 °FSunny.5 mph43%29.98 "Hg10 mi
7:30 PM75 °FSunny.5 mph29%29.98 "Hg10 mi
6:30 PM77 °FSunny.7 mph28%29.98 "Hg10 mi
5:30 PM81 °FSunny.7 mph23%29.98 "Hg10 mi
4:30 PM81 °FSunny.No wind18%30.01 "Hg10 mi
2:30 PM79 °FSunny.5 mph23%30.07 "Hg10 mi
1:30 PM77 °FSunny.5 mph26%30.07 "Hg10 mi
12:30 PM79 °FSunny.7 mph26%30.07 "Hg10 mi
11:30 AM72 °FSunny.9 mph44%30.09 "Hg10 mi
10:30 AM70 °FSunny.5 mph43%30.07 "Hg10 mi
9:30 AM68 °FSunny.No wind46%30.07 "Hg10 mi
8:30 AM61 °FSunny.No wind63%30.07 "Hg10 mi
7:29 AM54 °FClear.2 mph72%30.04 "Hg10 mi
6:24 AM52 °FClear.No wind82%30.01 "Hg10 mi
5:26 AM54 °FClear.No wind82%30.04 "Hg10 mi
4:28 AM54 °FClear.2 mph82%30.01 "Hg10 mi
3:28 AM54 °FClear.No wind82%30.01 "Hg10 mi
2:28 AM55 °FClear.2 mph77%30.04 "Hg10 mi
1:30 AM59 °FClear.5 mph59%30.04 "Hg10 mi
12:27 AM61 °FClear.2 mph59%30.07 "Hg10 mi
Weather by CustomWeather, © 2015

See weather overviewHow to use our weather pages